Pagosa Springs, CO

1:52 AM MDT on June 29, 2017 (GMT -0600)
Pagosa Springs

Weather History for KPSO - December, 2013

Change the Weather History Date:

Monday, December 30, 2013

  Actual Average (KE33) Record (KE33)
Temperature  
Mean Temperature 24 °F -  
Max Temperature 37 °F 34 °F 48 °F (1998)
Min Temperature 11 °F 16 °F 14 °F (2002)
Degree Days  
Heating Degree Days 41    
Moisture  
Dew Point 15 °F    
Average Humidity 78    
Maximum Humidity 98    
Minimum Humidity 40    
Precipitation  
Precipitation 0.00 in - - ()
Sea Level Pressure  
Sea Level Pressure 30.26 in    
Wind  
Wind Speed 0 mph (ESE)    
Max Wind Speed 5 mph    
Max Gust Speed -    
Visibility 10 miles    
Events Thunderstorm    
Averages and records for this station are not official NWS values.
T = Trace of Precipitation, MM = Missing Value Source: NWS Daily Summary

Daily Weather History Graph

Daily Weather History Graph

Search for Another Location

Airport or City:

Trip Planner

Search our weather history database for the weather conditions in past years. The results will help you decide how hot, cold, wet, or windy it might be!

Date:

Astronomy

Dec. 30, 2013 Rise Set
Actual Time 7:22 AM MST 5:00 PM MST
Civil Twilight 6:52 AM MST 5:29 PM MST
Nautical Twilight 6:20 AM MST 6:01 PM MST
Astronomical Twilight 5:48 AM MST 6:33 PM MST
Moon 5:15 AM MST (12/30) 3:35 PM MST (12/30)
Length of Visible Light 10h 36m
Length of Day
9h 38m
Waning Crescent, 4% of the Moon is Illuminated
Dec 30
Waning Crescent
Jan 1
New
Jan 7
First Quarter
Jan 15
Full
Jan 23
Last Quarter

Hourly Weather History & Observations

Time (MST) Temp. Windchill Dew Point Humidity Pressure Visibility Wind Dir Wind Speed Gust Speed Precip Events Conditions
12:15 AM 18.1 °F - 17.4 °F 97% 30.18 in 10.0 mi Calm Calm - N/A   Unknown
12:35 AM 14.5 °F - 13.6 °F 96% 30.19 in 10.0 mi Calm Calm - N/A   Unknown
12:55 AM 14.7 °F - 13.3 °F 94% 30.19 in 10.0 mi Calm Calm - N/A Thunderstorm Thunderstorm
1:15 AM 16.2 °F - 15.3 °F 96% 30.18 in 10.0 mi Calm Calm - N/A   Unknown
1:35 AM 15.8 °F - 14.2 °F 93% 30.18 in 10.0 mi Calm Calm - N/A   Unknown
1:55 AM 14.9 °F - 13.8 °F 95% 30.19 in 10.0 mi Calm Calm - N/A   Unknown
2:15 AM 14.0 °F - 12.7 °F 95% 30.18 in 10.0 mi Calm Calm - N/A   Unknown
2:35 AM 14.5 °F 8.8 °F 13.6 °F 96% 30.19 in 10.0 mi ENE 3.5 mph - N/A   Unknown
2:55 AM 14.5 °F - 13.3 °F 95% 30.19 in 10.0 mi Calm Calm - N/A   Unknown
3:15 AM 15.3 °F 7.9 °F 14.4 °F 96% 30.19 in 10.0 mi NE 4.6 mph - N/A   Unknown
3:35 AM 15.8 °F - 14.7 °F 95% 30.19 in 10.0 mi Calm Calm - N/A   Unknown
3:55 AM 14.0 °F - 12.4 °F 93% 30.19 in 10.0 mi Calm Calm - N/A   Unknown
4:15 AM 14.0 °F - 12.6 °F 94% 30.19 in 10.0 mi Calm Calm - N/A   Unknown
4:35 AM 12.6 °F - 11.1 °F 94% 30.19 in 10.0 mi Calm Calm - N/A   Unknown
4:55 AM 13.5 °F - 12.4 °F 95% 30.19 in 10.0 mi Calm Calm - N/A   Unknown
5:15 AM 11.5 °F - 10.0 °F 94% 30.20 in 10.0 mi Calm Calm - N/A   Unknown
5:35 AM 14.0 °F - 13.1 °F 96% 30.20 in 10.0 mi Calm Calm - N/A Thunderstorm Unknown
5:55 AM 12.0 °F - 10.2 °F 92% 30.20 in 10.0 mi Calm Calm - N/A   Unknown
6:15 AM 12.6 °F - 10.9 °F 93% 30.21 in 10.0 mi Calm Calm - N/A   Unknown
6:35 AM 12.6 °F - 10.2 °F 90% 30.21 in 10.0 mi Calm Calm - N/A   Unknown
6:55 AM 12.4 °F - 11.1 °F 95% 30.22 in 10.0 mi Calm Calm - N/A   Unknown
7:15 AM 12.2 °F - 10.4 °F 92% 30.23 in 10.0 mi Calm Calm - N/A   Unknown
7:35 AM 11.3 °F - 9.3 °F 92% 30.24 in 10.0 mi Calm Calm - N/A   Unknown
7:55 AM 12.6 °F - 11.1 °F 94% 30.25 in 10.0 mi Calm Calm - N/A   Unknown
8:15 AM 11.3 °F - 8.6 °F 89% 30.25 in 10.0 mi Calm Calm - N/A   Unknown
8:35 AM 18.1 °F - 17.4 °F 97% 30.26 in 10.0 mi Calm Calm - N/A   Unknown
8:55 AM 19.0 °F - 18.1 °F 96% 30.27 in 10.0 mi Calm Calm - N/A   Unknown
9:15 AM 18.1 °F - 17.1 °F 96% 30.28 in 10.0 mi Calm Calm - N/A   Unknown
9:35 AM 19.4 °F - 18.3 °F 96% 30.29 in 10.0 mi Calm Calm - N/A   Unknown
9:55 AM 21.0 °F - 19.4 °F 93% 30.30 in 10.0 mi Calm Calm - N/A   Unknown
10:15 AM 23.9 °F - 16.9 °F 75% 30.30 in 10.0 mi Calm Calm - N/A   Unknown
10:35 AM 25.2 °F - 16.3 °F 69% 30.30 in 10.0 mi Calm Calm - N/A   Unknown
10:55 AM 27.3 °F - 16.0 °F 62% 30.30 in 10.0 mi Calm Calm - N/A   Unknown
11:15 AM 27.9 °F - 16.5 °F 62% 30.29 in 10.0 mi Calm Calm - N/A   Unknown
11:35 AM 29.1 °F - 17.6 °F 62% 30.28 in 10.0 mi Calm Calm - N/A   Unknown
11:55 AM 30.7 °F - 17.8 °F 59% 30.27 in 10.0 mi Calm Calm - N/A   Unknown
12:15 PM 32.0 °F 28.7 °F 17.8 °F 56% 30.27 in 10.0 mi WSW 3.5 mph - N/A   Unknown
12:35 PM 32.4 °F - 17.6 °F 55% 30.27 in 10.0 mi Calm Calm - N/A   Unknown
12:55 PM 32.9 °F - 17.4 °F 53% 30.26 in 10.0 mi Calm Calm - N/A   Unknown
1:15 PM 34.7 °F - 16.5 °F 48% 30.26 in 10.0 mi Calm Calm - N/A   Unknown
1:55 PM 35.6 °F - 15.1 °F 43% 30.25 in 10.0 mi Calm Calm - N/A   Unknown
2:15 PM 36.5 °F 33.9 °F 15.4 °F 42% 30.25 in 10.0 mi SSW 3.5 mph - N/A   Unknown
2:35 PM 36.7 °F - 15.1 °F 41% 30.26 in 10.0 mi Calm Calm - N/A   Unknown
2:55 PM 37.0 °F - 14.7 °F 40% 30.26 in 10.0 mi Calm Calm - N/A   Unknown
3:15 PM 37.6 °F - 15.4 °F 41% 30.26 in 10.0 mi Calm Calm - N/A   Unknown
3:35 PM 37.4 °F - 18.0 °F 45% 30.26 in 10.0 mi Calm Calm - N/A   Unknown
3:55 PM 37.0 °F - 18.0 °F 46% 30.27 in 10.0 mi Calm Calm - N/A   Unknown
4:15 PM 37.0 °F - 17.6 °F 45% 30.27 in 10.0 mi Calm Calm - N/A   Unknown
4:35 PM 35.8 °F 33.0 °F 17.2 °F 47% 30.27 in 10.0 mi South 3.5 mph - N/A   Unknown
4:55 PM 32.4 °F - 17.4 °F 54% 30.27 in 10.0 mi Calm Calm - N/A   Unknown
5:15 PM 29.1 °F - 17.8 °F 63% 30.27 in 10.0 mi Calm Calm - N/A   Unknown
5:35 PM 28.8 °F - 16.9 °F 61% 30.28 in 10.0 mi Calm Calm - N/A   Unknown
5:55 PM 27.5 °F - 18.3 °F 68% 30.28 in 10.0 mi Calm Calm - N/A   Unknown
6:15 PM 27.0 °F - 17.6 °F 68% 30.29 in 10.0 mi Calm Calm - N/A   Unknown
6:35 PM 28.9 °F - 17.2 °F 62% 30.30 in 10.0 mi Calm Calm - N/A   Unknown
6:55 PM 21.4 °F - 16.2 °F 80% 30.31 in 10.0 mi Calm Calm - N/A   Unknown
7:15 PM 23.5 °F 19.1 °F 16.7 °F 75% 30.32 in 10.0 mi NE 3.5 mph - N/A   Unknown
7:35 PM 24.3 °F - 17.1 °F 74% 30.32 in 10.0 mi Calm Calm - N/A   Unknown
7:55 PM 23.9 °F - 16.3 °F 73% 30.33 in 10.0 mi Calm Calm - N/A   Unknown
8:15 PM 21.7 °F - 16.0 °F 78% 30.33 in 10.0 mi Calm Calm - N/A   Unknown
8:35 PM 21.4 °F - 16.9 °F 83% 30.34 in 10.0 mi Calm Calm - N/A   Unknown
8:55 PM 20.7 °F - 16.9 °F 85% 30.34 in 10.0 mi Calm Calm - N/A   Unknown
9:15 PM 21.2 °F - 16.5 °F 82% 30.34 in 10.0 mi Calm Calm - N/A   Unknown
9:35 PM 20.3 °F - 16.0 °F 83% 30.35 in 10.0 mi Calm Calm - N/A   Unknown
9:55 PM 19.2 °F - 16.9 °F 91% 30.34 in 10.0 mi Calm Calm - N/A   Unknown
10:15 PM 19.2 °F - 17.2 °F 92% 30.34 in 10.0 mi Calm Calm - N/A   Unknown
10:35 PM 18.3 °F - 15.6 °F 89% 30.35 in 10.0 mi Calm Calm - N/A   Unknown
10:55 PM 18.7 °F - 17.1 °F 93% 30.34 in 10.0 mi Calm Calm - N/A   Unknown
11:15 PM 19.9 °F - 16.9 °F 88% 30.34 in 10.0 mi Calm Calm - N/A   Unknown
11:35 PM 15.3 °F - 12.9 °F 90% 30.34 in 10.0 mi Calm Calm - N/A   Unknown
11:55 PM 17.1 °F - 16.5 °F 98% 30.34 in 10.0 mi Calm Calm - N/A   Unknown